Skip Page Navigation
NASA JPL Caltech
NASA Logo - Jet Propulsion Laboratory + View the NASA Portal
+ Center for Near-Earth Object Studies
JPL Home Earth Solar System Stars & Galaxies Technology
JPL Solar System Dynamics
BODIES ORBITS EPHEMERIDES TOOLS PHYSICAL DATA DISCOVERY FAQ SITE MAP
IMPORTANT: The SSD Announcement email list is now available. Major changes are coming in the near future, including possible hostname and/or URL changes. To be notified of such changes, subscribe to this email list.

Please visit this page for more details.


JPL Small-Body Database Browser
Search: [ help ]  
268134 (2004 TS126)
Classification: Main-belt Asteroid          SPK-ID: 2268134
Ephemeris | Orbit Diagram | Orbital Elements | Mission Design | Physical Parameters | Discovery Circumstances ]

[ show orbit diagram ]
Orbital Elements at Epoch 2458600.5 (2019-Apr-27.0) TDB
Reference: JPL 19 (heliocentric ecliptic J2000)
 Element Value Uncertainty (1-sigma)   Units 
e .1636627849442322 4.5994e-08  
a 2.63908602878873 2.1741e-08 au
q 2.207165859609752 1.1988e-07 au
i 15.15386645527009 5.2558e-06 deg
node 169.7100191634619 1.9962e-05 deg
peri 177.1742285829967 2.5699e-05 deg
M 160.6979695163388 1.7496e-05 deg
tp 2457901.484772274907
(2017-May-27.98477227)
7.444e-05 TDB
period 1565.953090374596
4.29
1.9351e-05
5.298e-08
d
yr
n .2298919438984493 2.8408e-09 deg/d
Q 3.071006197967708 2.5299e-08 au
  Orbit Determination Parameters
   # obs. used (total)      348  
   data-arc span      6204 days (16.99 yr)  
   first obs. used      2002-03-05  
   last obs. used      2019-02-28  
   planetary ephem.      DE431  
   SB-pert. ephem.      SB431-N16  
   condition code      0  
   norm. resid. RMS      .56148  
   source      ORB  
   producer      Otto Matic  
   solution date      2019-Jul-13 19:10:34  

Additional Information
 Earth MOID = 1.19979 au 
 Jupiter MOID = 2.36119 au 
 T_jup = 3.328 
[ show covariance matrix ]

Ephemeris | Orbit Diagram | Orbital Elements | Mission Design | Physical Parameters | Discovery Circumstances ]

Physical Parameter Table
Parameter Symbol Value Units Sigma Reference Notes
absolute magnitude H 16.0   n/a MPO437233  

268134 (2004 TS126)          Discovered 2004-Oct-07 by LINEAR at Socorro
Reference: 20110319/Numbers.arcLast Updated: 2011-03-23
Ephemeris | Orbit Diagram | Orbital Elements | Mission Design | Physical Parameters | Discovery Circumstances ]
ABOUT SSD CREDITS/AWARDS PRIVACY/COPYRIGHT GLOSSARY LINKS
FirstGov 2020-Jan-20 12:57 UT
(server date/time)  
NASA Home Page
Site Manager:   Ryan S. Park
Webmaster  Alan B. Chamberlin